Home   Weather   Germany   Ilmenau   Past weeks
Flag for Germany

Past Weather in Ilmenau, Thuringia, Germany — Yesterday and Last 2 Weeks

Currently: 41 °F. Passing clouds. (Weather station: Erfurt-Bindersleben, Germany). See more current weather

Past Weather in Ilmenau — Graph

°F

Ilmenau Temperature Yesterday

Maximum temperature yesterday: 46 °F (at 1:20 pm)
Minimum temperature yesterday: 34 °F (at 5:20 am)
Average temperature yesterday: 40 °F

High & Low Weather Summary for the Past Weeks

 TemperatureHumidityPressure
High61 °F (Feb 16, 1:20 pm)100% (Feb 18, 6:20 am)30.51 "Hg (Feb 18, 6:20 am)
Low32 °F (Feb 13, 7:50 am)50% (Feb 21, 9:20 pm)29.09 "Hg (Feb 22, 9:20 pm)
Average45 °F79%29.90 "Hg
* Reported Feb 11 10:20 pm — Feb 26 10:20 pm, Ilmenau. Weather by CustomWeather, © 2024

Note: Actual official high and low records may vary slightly from our data, if they occured in-between our weather recording intervals... More about our weather records

Ilmenau Weather History for the Previous 24 Hours

Scroll right to see more
 ConditionsComfort  
Time TempWeatherWind HumidityBarometerVisibility
10:20 pm
Mon, Feb 26
41 °FPassing clouds.7 mph87%29.80 "HgN/A
9:50 pm43 °FPassing clouds.8 mph87%29.80 "HgN/A
9:20 pm43 °FPassing clouds.8 mph87%29.77 "HgN/A
8:50 pm43 °FPassing clouds.8 mph87%29.77 "HgN/A
8:20 pm43 °FPassing clouds.7 mph87%29.77 "HgN/A
7:50 pm43 °FPassing clouds.7 mph87%29.74 "HgN/A
7:20 pm43 °FPassing clouds.8 mph87%29.74 "HgN/A
6:50 pm45 °FOvercast.8 mph81%29.71 "HgN/A
6:20 pm45 °FPassing clouds.6 mph81%29.71 "HgN/A
5:50 pm45 °FPassing clouds.7 mph81%29.71 "HgN/A
5:20 pm45 °FSunny.10 mph81%29.68 "Hg10 mi
4:50 pm45 °FPassing clouds.10 mph81%29.68 "HgN/A
4:20 pm45 °FSunny.10 mph81%29.68 "Hg10 mi
3:50 pm45 °FSunny.10 mph81%29.65 "Hg10 mi
3:20 pm45 °FSunny.9 mph76%29.65 "Hg10 mi
2:50 pm43 °FSunny.10 mph81%29.65 "Hg10 mi
2:20 pm43 °FPassing clouds.8 mph81%29.62 "HgN/A
1:50 pm43 °FSunny.9 mph81%29.62 "Hg10 mi
1:20 pm41 °FSunny.8 mph81%29.62 "Hg10 mi
12:50 pm41 °FSunny.7 mph87%29.62 "Hg10 mi
12:20 pm41 °FSunny.8 mph81%29.62 "Hg10 mi
11:50 am39 °FPassing clouds.6 mph87%29.62 "HgN/A
11:20 am39 °FPassing clouds.6 mph87%29.62 "Hg5 mi
10:50 am37 °FPassing clouds.3 mph93%29.59 "Hg5 mi
10:20 am36 °FFog.3 mph93%29.59 "Hg3 mi
9:50 am36 °FFog.8 mph93%29.59 "Hg2 mi
9:20 am34 °FFog.5 mph93%29.59 "Hg2 mi
8:50 am34 °FClear.5 mph93%29.59 "Hg5 mi
7:50 am32 °FSunny.2 mph93%29.59 "Hg10 mi
7:20 am34 °FSunny.3 mph87%29.56 "Hg10 mi
6:50 am36 °FClear.3 mph87%29.56 "Hg10 mi
6:20 am34 °FPassing clouds.3 mph87%29.56 "HgN/A
5:50 am34 °FClear.3 mph87%29.56 "Hg10 mi
5:20 am34 °FClear.5 mph87%29.56 "Hg10 mi
4:50 am34 °FPassing clouds.5 mph87%29.56 "HgN/A
4:20 am34 °FClear.5 mph87%29.56 "Hg10 mi
3:20 am34 °FClear.3 mph87%29.56 "Hg10 mi
2:50 am34 °FClear.3 mph87%29.56 "Hg10 mi
2:20 am34 °FClear.3 mph87%29.56 "Hg10 mi
1:50 am36 °FClear.3 mph81%29.56 "Hg10 mi
12:20 am37 °FClear.2 mph70%29.59 "Hg10 mi
11:50 pm
Sun, Feb 25
37 °FClear.1 mph75%29.59 "Hg10 mi
11:20 pm36 °FClear.2 mph81%29.59 "Hg10 mi
Weather by CustomWeather, © 2024

See weather overview